Regional Weather Roundup
Issued by NWS Mobile, AL

Home | Current Version | Previous Version | Text Only | Print | Product List | Glossary On
Versions: 1 2 3 4 5 6 7 8 9 10 11 12 13 14 15 16 17 18 19 20 21 22 23 24 25 26 27
000
ASUS44 KMOB 191713
RWRMOB
REGIONAL WEATHER ROUNDUP
NATIONAL WEATHER SERVICE MOBILE AL
1200 PM CDT TUE SEP 19 2017

NOTE: "FAIR" INDICATES FEW OR NO CLOUDS BELOW 12,000 FEET WITH NO
      SIGNIFICANT WEATHER AND/OR OBSTRUCTIONS TO VISIBILITY.

  * THESE STATIONS ARE PART OF THE UNIVERSITY OF SOUTH ALABAMA
    MESONET AND ARE NOT UNDER NWS OR FAA QUALITY CONTROL.

ALZ061>064-191800-
COASTAL ALABAMA

CITY           SKY/WX    TMP DP  RH WIND       PRES   REMARKS
MOBILE REG APT PTSUNNY   86  74  67 SW7       30.02F
BROOKLEY FIELD MOSUNNY   87  74  64 S6        30.01F HX  95
USA CAMPUS*    NOT AVBL
DOG RIVER*     NOT AVBL


CITY           SKY/WX    TMP DP  RH WIND       PRES   REMARKS
GULF SHORES    MOSUNNY   87  74  63 W6G17     30.00F HX  95

$$

ALZ051>060-191800-
INTERIOR SOUTHWEST AND SOUTH CENTRAL ALABAMA

CITY           SKY/WX    TMP DP  RH WIND       PRES   REMARKS
GREENVILLE     MOSUNNY   88  69  53 VRB3      30.00F
EVERGREEN      PTSUNNY   87  73  62 S6        30.01F
ATMORE*          N/A    N/A N/A N/A W5          N/A
ANDALUSIA/OPP  PTSUNNY   90  72  55 VRB5      30.00F HX  97
ANDALUSIA*       N/A     86  73  66 W3        30.02F
FLORALA APT    NOT AVBL
FLORALA*         N/A     84  73  70 S3        30.69F

$$

FLZ001>006-191800-
WESTERN FLORIDA PANHANDLE

CITY           SKY/WX    TMP DP  RH WIND       PRES   REMARKS
PENSACOLA      MOSUNNY   90  74  59 S8        30.00F HX  99
NAS PENSACOLA  MOSUNNY   88  75  65 S9        29.99F HX  97
MILTON         MOSUNNY   88  73  61 NW7       30.00F HX  95
WHTNG S FIELD  MOSUNNY   89  74  60 CALM      30.00F HX  98


CITY           SKY/WX    TMP DP  RH WIND       PRES   REMARKS
JAY*             N/A     88  73  62 S3        30.00F HX  96
DUKE FIELD     MOSUNNY   87  72  59 W7        30.00F
CRESTVIEW      MOSUNNY   89  71  55 VRB3      30.01F HX  95
VALPARAISO     PTSUNNY   85  75  71 S8        29.99F
DESTIN         SUNNY     89  73  59 SW7       30.00F HX  97

$$

MSZ076-079-191800-
INTERIOR SOUTHEAST MISSISSIPPI

CITY           SKY/WX    TMP DP  RH WIND       PRES   REMARKS
LEAKESVILLE*     N/A     84  73  70 NW3       30.01F
AGRICOLA*        N/A     84  75  74 W5        30.00F

$$

MARINE OBSERVATIONS

STATION/POSITION TIME  TEMP    WIND        PRES    WAVE
                       AIR SEA DIR/SP/G            HT/PER
                 (UTC) (F)     (DEG/KT/KT) (MB)    (FT/S)
PASCAGOULA       1648   83     290/  4/  6 1016.4S
PETIT BOIS ISLND 1648   83     290/  4/  5 1017.2F
GRAND BAY        1545   81     310/  4     1017.0S
KATRINA CUT      1630   81     310/  5     1016.6F
CEDAR POINT      1630   82     270/  7     1016.6F
E DAUPHIN ISLAND 1600   83     290/  6/  8 1016.2F
MIDDLE BAY LIGHT 1630   84     190/  3     1016.6S
USCG MOBILE BAY  1648   86 82  230/  3/  6 1015.8F
STATE DOCKS      1642   89 81              1015.8F
MEAHER PARK      1630   83     190/  5     1016.3F
WEEKS BAY        1545   87                 1016.0S
FORT MORGAN      1648   82     280/  7/  9   N/A
12 S ORANGE BCH  1650   81 84  290/  6/  8 1016.0F   1
PENSACOLA BAY    1642   87 81              1016.2F
64 S DAUPHIN ISL 1700   83 83  270/  2/  4 1016.7
67 S FORT MORGAN 1630   83        CALM     1016.9R

$$

SELECTED LOCATIONS ACROSS THE REGION

CITY           SKY/WX    TMP DP  RH WIND       PRES   REMARKS
NEW ORLEANS    PTSUNNY   89  72  56 VRB3      30.01F HX  96
GULFPORT       LGT RAIN  78  74  87 NW5       30.01F
PASCAGOULA AP  PTSUNNY   82  70  66 SW3       30.01S
PASCAGOULA*      N/A     81  73  78 CALM        N/A
HATTIESBURG    PTSUNNY   86  74  67 W5        30.01F
LAUREL         MOSUNNY   88  73  61 NW5       30.01F HX  95
MERIDIAN       MOSUNNY   86  75  69 W3        30.01F HX  95
JACKSON        MOSUNNY   85  77  77 NE3       30.01F HX  95
MONTGOMERY     PTSUNNY   90  71  53 VRB5      29.99F HX  96
TROY           PTSUNNY   86  74  67 CALM      30.01F
ASHFORD*         N/A     86  73  66 W3        30.02F
DOTHAN         MOSUNNY   89  73  59 NW6       30.04F HX  97
PANAMA CITY    MOSUNNY   88  73  61 W3        29.99F HX  95

$$





USA.gov is the U.S. government's official web portal to all federal, state and local government web resources and services.